Regional Weather Roundup
Issued by NWS

Home | Current Version | Previous Version | Text Only | Print | Product List | Glossary On
Versions: 1 2 3 4 5 6 7 8 9 10 11 12 13 14 15 16 17 18 19 20 21 22 23 24 25 26 27 28 29 30 31 32 33 34 35 36 37 38 39 40 41 42 43 44 45 46 47 48 49 50
000
ASUS43 KIND 231409
RWRIN

WEATHER ROUNDUP FOR INDIANA
NATIONAL WEATHER SERVICE INDIANAPOLIS IN
1000 AM EDT MON MAY 23 2022

NOTE: "FAIR" INDICATES FEW OR NO CLOUDS BELOW 12,000 FEET WITH NO
SIGNIFICANT WEATHER AND/OR OBSTRUCTIONS TO VISIBILITY.

* - STATION DOES NOT REPORT WEATHER SUCH AS PRECIPITATION OR FOG.

+ - STATION NOT QUALITY CONTROLLED BY THE NATIONAL WEATHER SERVICE.
    USE DATA WITH CAUTION...ESPECIALLY DEWPOINT AND RELATIVE
    HUMIDITY OBSERVATIONS.

INZ001>003-010>013-019-020-231500-
NORTHWEST INDIANA

CITY           SKY/WX    TMP DP  RH WIND       PRES   REMARKS
GARY /AIRPORT/ SUNNY     54  45  71 NE17      30.38S
KNOX *+        SUNNY     54  36  50 NE12G20   30.37S
LA PORTE +     SUNNY     53  38  55 NE12G18   30.37S
MICHIGAN CITY+ SUNNY     54  39  58 E8        30.37F
MONTICELLO +   MOSUNNY   56  35  46 E7G16     30.35F
VALPARAISO     SUNNY     55  38  52 NE12G22   30.37S

$$

LMZ046-743>745-231500-
SOUTHERN LAKE MICHIGAN

STATION/POSITION TIME  TEMP    WIND        PRES    WAVE
                       AIR SEA DIR/SP/G            HT
                 (UTC) (F)     (DEG/KT/KT) (MB)    (FT)
BURNS HARBOR     1340   52      60/ 11/ 12 1028.4F
MICHIGAN CITY    1340   51      50/ 13/ 14   N/A
5NW MICH CITY    1350   51      20/ 16/ 19   N/A     2

$$

INZ004-005-014>016-021>024-231500-
NORTH CENTRAL INDIANA

CITY           SKY/WX    TMP DP  RH WIND       PRES   REMARKS
ELKHART        SUNNY     54  37  54 NE9       30.38F
GOSHEN         MOSUNNY   54  42  64 NE10      30.37S
LOGANSPORT +   MOSUNNY   52   5  15 NE9       30.36S
PERU/GRISSOM   PTSUNNY   55  39  56 NE14      30.33F
PLYMOUTH *+    SUNNY     54  37  54 NE8G14    30.36S
ROCHESTER +    MOSUNNY   54  39  58 NE10G16   30.36F
SOUTH BEND     SUNNY     55  38  52 E9G17     30.38S
WARSAW +       MOSUNNY   52  37  58 NE7       30.37S

$$

INZ006>009-017-018-025>027-231500-
NORTHEAST INDIANA

CITY           SKY/WX    TMP DP  RH WIND       PRES   REMARKS
ANGOLA *+      PTSUNNY   52  41  66 NE9       30.37R
AUBURN +       PTSUNNY   54  43  66 NE9       30.36F
FORT WAYNE     PTSUNNY   56  39  53 NE10      30.35F
HUNTINGTON +   PTSUNNY   54  36  50 NE8       30.35S
KENDALLVILLE + FAIR      53  42  66 N9        30.36F

$$

INZ028-029-035-036-043>045-051>053-231500-
WEST CENTRAL INDIANA

CITY           SKY/WX    TMP DP  RH WIND       PRES   REMARKS
CRAWFORDSVL +  PTSUNNY   54  23  30 NE15      30.33S
GREENCASTLE +  FAIR      57  39  51 NE14G21   30.32S
LAFAYETTE      MOSUNNY   54  41  61 E10       30.34F
TERRE HAUTE    PTSUNNY   58  40  51 E13       30.32R

$$

INZ030>032-037>040-046>048-054>057-064-065-231500-
CENTRAL INDIANA

CITY           SKY/WX    TMP DP  RH WIND       PRES   REMARKS
ANDERSON +     PTSUNNY   55  36  50 NE9       30.34S
COLUMBUS       SUNNY     54  37  54 NE9       30.32S
FISHERS *+     PTSUNNY   57  43  59 NE9       30.33F
FRANKFORT +    PTSUNNY   55  37  50 NE14      30.33S
GREENWOOD *+   PTSUNNY   55  41  60 E9        30.33S
INDIANAPOLIS   PTSUNNY   55  37  50 NE14      30.32S
-EAGLE CREEK   PTSUNNY   57  38  48 NE14G20   30.32S
KOKOMO +       PTSUNNY   56  39  53 NE13      30.35F
MARION +       PTSUNNY   54  40  59 NE12      30.35S
MT COMFORT *+  PTSUNNY   54  41  62 NE10      30.33S
SHELBYVILLE    CLOUDY    57  42  57 NE10      30.31S

$$

INZ033-034-041-042-049-050-058-059-231500-
EAST CENTRAL INDIANA

CITY           SKY/WX    TMP DP  RH WIND       PRES   REMARKS
MUNCIE         PTSUNNY   56  38  50 NE13      30.33S
RICHMOND +     FAIR      52  43  71 NE13      30.32S

$$

INZ060-061-067>069-081>083-085>088-231500-
SOUTHWEST INDIANA

CITY           SKY/WX    TMP DP  RH WIND       PRES   REMARKS
EVANSVILLE     CLOUDY    57  37  47 NE15      30.26S
HUNTINGBURG +  CLOUDY    55  38  52 NE10      30.27S
WASHINGTON +   PTSUNNY   56  38  50 NE10G17   30.29S

$$

INZ062-063-066-070>080-084-089>092-231500-
SOUTH CENTRAL AND SOUTHEAST INDIANA

CITY           SKY/WX    TMP DP  RH WIND       PRES   REMARKS
BATESVILLE +   SUNNY     54  41  62 NE12G17   30.30S
BLOOMINGTON    CLOUDY    55  37  50 NE9       30.30S
FRENCH LICK *+ CLOUDY    54  34  47 NE10G20   30.27F
JEFFERSONVL +  FAIR      54  41  62 NE7       30.26F
MADISON *+     CLOUDY    52  41  66 NE9       30.30S

$$




USA.gov is the U.S. government's official web portal to all federal, state and local government web resources and services.